| time (UTC) | temp F | wind direction | speed MPH | gust MPH | rain 1hr in | rain 24hr in | rain mn in | humidity % | barometer mb |
| 20260902064155 | 84 | 176 | 4.0 | 9.0 | 0.00 | 0.00 | 0.00 | 79 | 1016.2 |
| 20260902063650 | 84 | 171 | 6.0 | 14.0 | 0.00 | 0.00 | 0.00 | 79 | 1016.4 |
| 20260902063144 | 84 | 162 | 8.0 | 11.0 | 0.00 | 0.00 | 0.00 | 79 | 1016.3 |
| 20260902062643 | 84 | 156 | 5.0 | 9.0 | 0.00 | 0.00 | 0.00 | 79 | 1016.2 |
| 20260902062138 | 84 | 165 | 7.0 | 9.0 | 0.00 | 0.00 | 0.00 | 79 | 1016.4 |
| 20260902061638 | 84 | 182 | 5.0 | 10.0 | 0.00 | 0.00 | 0.00 | 79 | 1016.2 |
| 20260902061134 | 84 | 174 | 4.0 | 8.0 | 0.00 | 0.00 | 0.00 | 79 | 1016.3 |
| 20260902060630 | 84 | 153 | 6.0 | 14.0 | 0.00 | 0.00 | 0.00 | 78 | 1016.2 |
| 20260902060126 | 84 | 155 | 8.0 | 12.0 | 0.00 | 0.00 | 0.00 | 78 | 1016.3 |
| 20260902055622 | 84 | 149 | 5.0 | 8.0 | 0.00 | 0.00 | 0.00 | 78 | 1016.3 |
| 20260902055117 | 84 | 171 | 5.0 | 14.0 | 0.00 | 0.00 | 0.00 | 78 | 1016.5 |
| 20260902054612 | 84 | 173 | 6.0 | 13.0 | 0.00 | 0.00 | 0.00 | 78 | 1016.4 |
| 20260902054108 | 84 | 175 | 6.0 | 14.0 | 0.00 | 0.00 | 0.00 | 78 | 1016.5 |
| 20260902053603 | 84 | 165 | 5.0 | 7.0 | 0.00 | 0.00 | 0.00 | 78 | 1016.4 |
| 20260902053103 | 84 | 166 | 5.0 | 15.0 | 0.00 | 0.00 | 0.00 | 78 | 1016.6 |
| 20260902052557 | 84 | 150 | 7.0 | 10.0 | 0.00 | 0.00 | 0.00 | 78 | 1016.5 |
| 20260902052053 | 84 | 165 | 5.0 | 9.0 | 0.00 | 0.00 | 0.00 | 78 | 1016.3 |
| 20260902051552 | 84 | 169 | 4.0 | 10.0 | 0.00 | 0.00 | 0.00 | 78 | 1016.4 |
| 20260902051051 | 85 | 179 | 4.0 | 13.0 | 0.00 | 0.00 | 0.00 | 78 | 1016.4 |
| 20260902050546 | 85 | 169 | 3.0 | 9.0 | 0.00 | 0.00 | 0.00 | 78 | 1016.3 |
| 20260902050042 | 85 | 180 | 4.0 | 8.0 | 0.00 | 0.00 | 0.00 | 78 | 1016.5 |
| 20260902045538 | 85 | 169 | 4.0 | 15.0 | 0.00 | 0.00 | 0.00 | 78 | 1016.6 |
| 20260902045033 | 85 | 172 | 9.0 | 13.0 | 0.00 | 0.00 | 0.00 | 78 | 1016.4 |
| 20260902044528 | 85 | 180 | 5.0 | 13.0 | 0.00 | 0.00 | 0.00 | 78 | 1016.4 |
| 20260902044023 | 85 | 133 | 11.0 | 12.0 | 0.00 | 0.00 | 0.00 | 77 | 1016.4 |
| 20260902043518 | 85 | 176 | 7.0 | 12.0 | 0.00 | 0.00 | 0.00 | 77 | 1016.5 |
| 20260902043013 | 85 | 148 | 7.0 | 8.0 | 0.00 | 0.00 | 0.00 | 77 | 1016.2 |
| 20260902042513 | 85 | 181 | 5.0 | 14.0 | 0.00 | 0.00 | 0.00 | 76 | 1016.5 |
| 20260902042008 | 85 | 148 | 4.0 | 9.0 | 0.00 | 0.00 | 0.00 | 76 | 1016.5 |
| 20260902041508 | 85 | 152 | 3.0 | 13.0 | 0.00 | 0.00 | 0.00 | 76 | 1016.3 |
| 20260902041002 | 85 | 147 | 7.0 | 12.0 | 0.00 | 0.00 | 0.00 | 76 | 1016.2 |
| 20260902040457 | 85 | 142 | 8.0 | 12.0 | 0.00 | 0.00 | 0.00 | 76 | 1016.2 |
| 20260902035956 | 85 | 132 | 10.0 | 17.0 | 0.00 | 0.00 | 0.00 | 76 | 1016.2 |
| 20260902035450 | 85 | 146 | 8.0 | 15.0 | 0.00 | 0.00 | 0.00 | 76 | 1016.0 |
| 20260902034945 | 85 | 154 | 6.0 | 13.0 | 0.00 | 0.00 | 0.00 | 76 | 1016.0 |
| 20260902034444 | 86 | 142 | 9.0 | 14.0 | 0.00 | 0.00 | 0.00 | 75 | 1016.0 |
| 20260902033944 | 86 | 138 | 6.0 | 15.0 | 0.00 | 0.00 | 0.00 | 75 | 1015.9 |
| 20260902033444 | 86 | 130 | 6.0 | 11.0 | 0.00 | 0.00 | 0.00 | 75 | 1015.9 |
| 20260902032943 | 86 | 152 | 10.0 | 15.0 | 0.00 | 0.00 | 0.00 | 74 | 1015.9 |
| 20260902032438 | 86 | 132 | 10.0 | 14.0 | 0.00 | 0.00 | 0.00 | 74 | 1015.7 |
| 20260902031932 | 86 | 192 | 4.0 | 12.0 | 0.00 | 0.00 | 0.00 | 73 | 1015.7 |
| 20260902031422 | 86 | 160 | 4.0 | 13.0 | 0.00 | 0.00 | 0.00 | 73 | 1015.7 |
| 20260902030918 | 86 | 156 | 4.0 | 15.0 | 0.00 | 0.00 | 0.00 | 72 | 1015.5 |
| 20260902030413 | 87 | 140 | 15.0 | 19.0 | 0.00 | 0.00 | 0.00 | 72 | 1015.3 |
| 20260902025911 | 87 | 157 | 6.0 | 9.0 | 0.00 | 0.00 | 0.00 | 71 | 1015.3 |
| 20260902025402 | 87 | 156 | 6.0 | 13.0 | 0.00 | 0.00 | 0.00 | 71 | 1015.0 |
| 20260902024901 | 87 | 172 | 7.0 | 13.0 | 0.00 | 0.00 | 0.00 | 70 | 1015.0 |
| 20260902024352 | 87 | 144 | 4.0 | 12.0 | 0.00 | 0.00 | 0.00 | 70 | 1014.7 |
| 20260902023847 | 87 | 157 | 11.0 | 16.0 | 0.00 | 0.00 | 0.00 | 70 | 1014.6 |
| 20260902023342 | 88 | 141 | 6.0 | 13.0 | 0.00 | 0.00 | 0.00 | 69 | 1014.6 |
| 20260902022841 | 88 | 148 | 12.0 | 14.0 | 0.00 | 0.00 | 0.00 | 68 | 1014.6 |
| 20260902022337 | 88 | 147 | 13.0 | 17.0 | 0.00 | 0.00 | 0.00 | 67 | 1014.4 |
| 20260902021833 | 89 | 160 | 12.0 | 17.0 | 0.00 | 0.00 | 0.00 | 66 | 1014.3 |
| 20260902021327 | 89 | 156 | 14.0 | 19.0 | 0.00 | 0.00 | 0.00 | 65 | 1014.2 |
| 20260902020823 | 89 | 141 | 10.0 | 16.0 | 0.00 | 0.00 | 0.00 | 63 | 1014.1 |
| 20260902020319 | 89 | 129 | 8.0 | 15.0 | 0.00 | 0.00 | 0.00 | 62 | 1014.0 |
| 20260902015814 | 89 | 143 | 6.0 | 13.0 | 0.00 | 0.00 | 0.00 | 62 | 1014.1 |
| 20260902015310 | 90 | 150 | 11.0 | 13.0 | 0.00 | 0.00 | 0.00 | 61 | 1013.9 |
| 20260902014806 | 90 | 153 | 10.0 | 15.0 | 0.00 | 0.00 | 0.00 | 60 | 1013.9 |
| 20260902014302 | 90 | 171 | 7.0 | 11.0 | 0.00 | 0.00 | 0.00 | 59 | 1013.9 |
| 20260902013801 | 91 | 139 | 12.0 | 14.0 | 0.00 | 0.00 | 0.00 | 58 | 1013.7 |
| 20260902013256 | 91 | 173 | 7.0 | 12.0 | 0.00 | 0.00 | 0.00 | 57 | 1013.6 |
| 20260902012751 | 91 | 157 | 8.0 | 12.0 | 0.00 | 0.00 | 0.00 | 56 | 1013.7 |
| 20260902012247 | 92 | 156 | 8.0 | 10.0 | 0.00 | 0.00 | 0.00 | 54 | 1013.4 |
| 20260902011743 | 92 | 134 | 7.0 | 15.0 | 0.00 | 0.00 | 0.00 | 53 | 1013.4 |
| 20260902011242 | 92 | 148 | 5.0 | 14.0 | 0.00 | 0.00 | 0.00 | 53 | 1013.3 |
| 20260902010736 | 93 | 152 | 8.0 | 12.0 | 0.00 | 0.00 | 0.00 | 52 | 1013.0 |
| 20260902010232 | 93 | 159 | 7.0 | 11.0 | 0.00 | 0.00 | 0.00 | 52 | 1013.2 |
| 20260902005730 | 93 | 150 | 10.0 | 16.0 | 0.00 | 0.00 | 0.00 | 51 | 1012.9 |
| 20260902005226 | 93 | 141 | 9.0 | 12.0 | 0.00 | 0.00 | 0.00 | 50 | 1013.0 |
| 20260902004725 | 94 | 155 | 8.0 | 17.0 | 0.00 | 0.00 | 0.00 | 48 | 1013.1 |
| 20260902004221 | 94 | 154 | 5.0 | 11.0 | 0.00 | 0.00 | 0.00 | 47 | 1013.0 |
| 20260902003715 | 94 | 147 | 6.0 | 10.0 | 0.00 | 0.00 | 0.00 | 46 | 1012.8 |
| 20260902003211 | 95 | 133 | 9.0 | 15.0 | 0.00 | 0.00 | 0.00 | 45 | 1012.7 |
| 20260902002707 | 95 | 156 | 8.0 | 13.0 | 0.00 | 0.00 | 0.00 | 44 | 1012.8 |
| 20260902002206 | 95 | 178 | 6.0 | 13.0 | 0.00 | 0.00 | 0.00 | 43 | 1012.6 |
| 20260902001702 | 96 | 176 | 5.0 | 11.0 | 0.00 | 0.00 | 0.00 | 43 | 1012.5 |
| 20260902001201 | 96 | 135 | 11.0 | 16.0 | 0.00 | 0.00 | 0.00 | 42 | 1012.6 |
| 20260902000657 | 96 | 165 | 7.0 | 11.0 | 0.00 | 0.00 | 0.00 | 41 | 1012.6 |
| 20260902000152 | 96 | 187 | 6.0 | 14.0 | 0.00 | 0.00 | 0.00 | 42 | 1012.4 |
| 20260901235646 | 96 | 154 | 6.0 | 13.0 | 0.00 | 0.00 | 0.00 | 42 | 1012.5 |
| 20260901235141 | 97 | 141 | 11.0 | 18.0 | 0.00 | 0.00 | 0.00 | 41 | 1012.3 |
| 20260901234640 | 97 | 134 | 11.0 | 15.0 | 0.00 | 0.00 | 0.00 | 40 | 1012.4 |
| 20260901234136 | 97 | 135 | 16.0 | 18.0 | 0.00 | 0.00 | 0.00 | 41 | 1012.4 |
| 20260901233630 | 98 | 139 | 10.0 | 15.0 | 0.00 | 0.00 | 0.00 | 40 | 1012.2 |
| 20260901233126 | 98 | 151 | 11.0 | 19.0 | 0.00 | 0.00 | 0.00 | 40 | 1012.4 |
| 20260901232626 | 98 | 138 | 9.0 | 14.0 | 0.00 | 0.00 | 0.00 | 40 | 1012.3 |
| 20260901232121 | 98 | 154 | 6.0 | 14.0 | 0.00 | 0.00 | 0.00 | 40 | 1012.3 |
| 20260901231618 | 98 | 128 | 14.0 | 17.0 | 0.00 | 0.00 | 0.00 | 40 | 1012.2 |
| 20260901231114 | 99 | 137 | 8.0 | 12.0 | 0.00 | 0.00 | 0.00 | 40 | 1012.2 |
| 20260901230609 | 99 | 175 | 4.0 | 12.0 | 0.00 | 0.00 | 0.00 | 40 | 1012.2 |
| 20260901230104 | 99 | 172 | 8.0 | 14.0 | 0.00 | 0.00 | 0.00 | 40 | 1011.9 |
| 20260901225559 | 99 | 157 | 7.0 | 17.0 | 0.00 | 0.00 | 0.00 | 39 | 1011.9 |
| 20260901225058 | 100 | 162 | 4.0 | 13.0 | 0.00 | 0.00 | 0.00 | 38 | 1012.0 |
| 20260901224554 | 100 | 126 | 6.0 | 15.0 | 0.00 | 0.00 | 0.00 | 39 | 1012.0 |
| 20260901224050 | 100 | 151 | 9.0 | 14.0 | 0.00 | 0.00 | 0.00 | 39 | 1012.0 |
| 20260901223546 | 100 | 128 | 12.0 | 16.0 | 0.00 | 0.00 | 0.00 | 38 | 1011.9 |
| 20260901223041 | 100 | 140 | 11.0 | 18.0 | 0.00 | 0.00 | 0.00 | 37 | 1011.9 |
| 20260901222537 | 101 | 140 | 8.0 | 13.0 | 0.00 | 0.00 | 0.00 | 37 | 1011.9 |
| 20260901222032 | 101 | 157 | 6.0 | 11.0 | 0.00 | 0.00 | 0.00 | 35 | 1012.1 |
| 20260901221529 | 100 | 191 | 4.0 | 14.0 | 0.00 | 0.00 | 0.00 | 37 | 1012.1 |
| 20260901221023 | 100 | 156 | 7.0 | 11.0 | 0.00 | 0.00 | 0.00 | 36 | 1012.1 |
| 20260901220518 | 101 | 152 | 8.0 | 14.0 | 0.00 | 0.00 | 0.00 | 35 | 1012.1 |
| 20260901220016 | 101 | 205 | 3.0 | 10.0 | 0.00 | 0.00 | 0.00 | 35 | 1012.1 |
| 20260901215514 | 101 | 135 | 7.0 | 13.0 | 0.00 | 0.00 | 0.00 | 35 | 1012.0 |
| 20260901215009 | 101 | 188 | 4.0 | 12.0 | 0.00 | 0.00 | 0.00 | 34 | 1012.2 |
| 20260901214508 | 102 | 125 | 7.0 | 9.0 | 0.00 | 0.00 | 0.00 | 33 | 1012.0 |
| 20260901214003 | 102 | 187 | 8.0 | 10.0 | 0.00 | 0.00 | 0.00 | 34 | 1012.2 |
| 20260901213456 | 101 | 169 | 4.0 | 5.0 | 0.00 | 0.00 | 0.00 | 34 | 1012.3 |
| 20260901212956 | 102 | 141 | 7.0 | 7.0 | 0.00 | 0.00 | 0.00 | 33 | 1012.4 |
| 20260901212451 | 102 | 148 | 7.0 | 12.0 | 0.00 | 0.00 | 0.00 | 33 | 1012.4 |
| 20260901211948 | 101 | 151 | 4.0 | 13.0 | 0.00 | 0.00 | 0.00 | 32 | 1012.4 |
| 20260901211443 | 101 | 138 | 10.0 | 14.0 | 0.00 | 0.00 | 0.00 | 33 | 1012.5 |
| 20260901210939 | 101 | 149 | 7.0 | 12.0 | 0.00 | 0.00 | 0.00 | 34 | 1012.5 |
| 20260901210434 | 101 | 150 | 7.0 | 9.0 | 0.00 | 0.00 | 0.00 | 34 | 1012.5 |
| 20260901205930 | 101 | 171 | 5.0 | 6.0 | 0.00 | 0.00 | 0.00 | 34 | 1012.6 |
| 20260901205425 | 102 | 112 | 5.0 | 12.0 | 0.00 | 0.00 | 0.00 | 34 | 1012.7 |
| 20260901204920 | 101 | 136 | 11.0 | 13.0 | 0.00 | 0.00 | 0.00 | 35 | 1012.7 |
| 20260901204417 | 100 | 205 | 4.0 | 12.0 | 0.00 | 0.00 | 0.00 | 36 | 1013.0 |
| 20260901203916 | 100 | 160 | 9.0 | 13.0 | 0.00 | 0.00 | 0.00 | 36 | 1013.0 |
| 20260901203411 | 101 | 173 | 4.0 | 9.0 | 0.00 | 0.00 | 0.00 | 37 | 1013.1 |
| 20260901202906 | 101 | 190 | 6.0 | 12.0 | 0.00 | 0.00 | 0.00 | 37 | 1013.2 |
| 20260901202400 | 101 | 143 | 4.0 | 8.0 | 0.00 | 0.00 | 0.00 | 38 | 1013.1 |
| 20260901201857 | 101 | 137 | 12.0 | 13.0 | 0.00 | 0.00 | 0.00 | 38 | 1013.4 |
| 20260901201356 | 102 | 149 | 8.0 | 17.0 | 0.00 | 0.00 | 0.00 | 38 | 1013.3 |
| 20260901200850 | 101 | 160 | 6.0 | 10.0 | 0.00 | 0.00 | 0.00 | 38 | 1013.5 |
| 20260901200345 | 101 | 181 | 9.0 | 14.0 | 0.00 | 0.00 | 0.00 | 38 | 1013.5 |
| 20260901195844 | 102 | 140 | 9.0 | 13.0 | 0.00 | 0.00 | 0.00 | 38 | 1013.6 |
| 20260901195337 | 100 | 192 | 7.0 | 9.0 | 0.00 | 0.00 | 0.00 | 38 | 1013.5 |
| 20260901194833 | 100 | 171 | 3.0 | 5.0 | 0.00 | 0.00 | 0.00 | 38 | 1013.9 |
| 20260901194327 | 100 | 184 | 6.0 | 10.0 | 0.00 | 0.00 | 0.00 | 39 | 1013.8 |
| 20260901193824 | 100 | 147 | 6.0 | 12.0 | 0.00 | 0.00 | 0.00 | 39 | 1014.1 |
| 20260901193322 | 99 | 149 | 5.0 | 10.0 | 0.00 | 0.00 | 0.00 | 39 | 1014.0 |
| 20260901192817 | 100 | 142 | 9.0 | 13.0 | 0.00 | 0.00 | 0.00 | 38 | 1014.1 |
| 20260901192313 | 100 | 168 | 4.0 | 8.0 | 0.00 | 0.00 | 0.00 | 39 | 1014.0 |
| 20260901191808 | 100 | 208 | 4.0 | 10.0 | 0.00 | 0.00 | 0.00 | 37 | 1014.1 |
| 20260901191304 | 101 | 200 | 8.0 | 8.0 | 0.00 | 0.00 | 0.00 | 39 | 1014.3 |
| 20260901190800 | 101 | 189 | 3.0 | 11.0 | 0.00 | 0.00 | 0.00 | 38 | 1014.4 |
| 20260901190254 | 99 | 168 | 5.0 | 7.0 | 0.00 | 0.00 | 0.00 | 41 | 1014.3 |
| 20260901185752 | 98 | 148 | 6.0 | 15.0 | 0.00 | 0.00 | 0.00 | 40 | 1014.7 |
| 20260901185252 | 98 | 133 | 10.0 | 10.0 | 0.00 | 0.00 | 0.00 | 43 | 1014.6 |
| 20260901184747 | 98 | 168 | 8.0 | 11.0 | 0.00 | 0.00 | 0.00 | 41 | 1015.0 |
| 20260901184242 | 98 | 178 | 5.0 | 9.0 | 0.00 | 0.00 | 0.00 | 43 | 1014.8 |
| 20260901183738 | 98 | 179 | 5.0 | 9.0 | 0.00 | 0.00 | 0.00 | 43 | 1014.8 |
| 20260901183237 | 98 | 166 | 7.0 | 10.0 | 0.00 | 0.00 | 0.00 | 44 | 1015.0 |
| 20260901182734 | 98 | 145 | 12.0 | 15.0 | 0.00 | 0.00 | 0.00 | 43 | 1015.0 |
| 20260901182232 | 97 | 169 | 3.0 | 5.0 | 0.00 | 0.00 | 0.00 | 43 | 1015.3 |
| 20260901181727 | 98 | 142 | 7.0 | 12.0 | 0.00 | 0.00 | 0.00 | 43 | 1015.2 |
| 20260901181222 | 98 | 159 | 9.0 | 10.0 | 0.00 | 0.00 | 0.00 | 43 | 1015.2 |
| 20260901180721 | 97 | 193 | 8.0 | 8.0 | 0.00 | 0.00 | 0.00 | 45 | 1015.3 |
| 20260901180220 | 96 | 151 | 10.0 | 15.0 | 0.00 | 0.00 | 0.00 | 46 | 1015.2 |
| 20260901175720 | 97 | 189 | 5.0 | 10.0 | 0.00 | 0.00 | 0.00 | 46 | 1015.6 |
| 20260901175215 | 96 | 141 | 7.0 | 14.0 | 0.00 | 0.00 | 0.00 | 46 | 1015.5 |
| 20260901174710 | 95 | 177 | 9.0 | 12.0 | 0.00 | 0.00 | 0.00 | 48 | 1015.6 |
| 20260901174206 | 96 | 151 | 6.0 | 15.0 | 0.00 | 0.00 | 0.00 | 47 | 1015.7 |
| 20260901173701 | 95 | 150 | 9.0 | 10.0 | 0.00 | 0.00 | 0.00 | 48 | 1015.8 |
| 20260901173156 | 95 | 133 | 11.0 | 13.0 | 0.00 | 0.00 | 0.00 | 48 | 1015.9 |
| 20260901172652 | 96 | 174 | 5.0 | 13.0 | 0.00 | 0.00 | 0.00 | 47 | 1015.9 |
| 20260901172149 | 95 | 181 | 6.0 | 9.0 | 0.00 | 0.00 | 0.00 | 48 | 1015.8 |
| 20260901171643 | 95 | 169 | 4.0 | 10.0 | 0.00 | 0.00 | 0.00 | 50 | 1015.9 |
| 20260901171142 | 95 | 143 | 10.0 | 12.0 | 0.00 | 0.00 | 0.00 | 48 | 1015.9 |
| 20260901170637 | 95 | 138 | 10.0 | 13.0 | 0.00 | 0.00 | 0.00 | 49 | 1016.0 |
| 20260901170132 | 94 | 167 | 10.0 | 13.0 | 0.00 | 0.00 | 0.00 | 51 | 1016.0 |
| 20260901165630 | 93 | 161 | 5.0 | 11.0 | 0.00 | 0.00 | 0.00 | 53 | 1016.1 |
| 20260901165126 | 93 | 187 | 5.0 | 12.0 | 0.00 | 0.00 | 0.00 | 52 | 1016.3 |
| 20260901164622 | 93 | 157 | 6.0 | 12.0 | 0.00 | 0.00 | 0.00 | 53 | 1016.3 |
| 20260901164117 | 92 | 169 | 7.0 | 10.0 | 0.00 | 0.00 | 0.00 | 57 | 1016.3 |
| 20260901163612 | 92 | 178 | 8.0 | 11.0 | 0.00 | 0.00 | 0.00 | 57 | 1016.2 |
| 20260901163111 | 92 | 175 | 4.0 | 12.0 | 0.00 | 0.00 | 0.00 | 59 | 1016.4 |
| 20260901162606 | 91 | 183 | 5.0 | 9.0 | 0.00 | 0.00 | 0.00 | 60 | 1016.2 |
| 20260901162100 | 92 | 145 | 8.0 | 9.0 | 0.00 | 0.00 | 0.00 | 60 | 1016.3 |
| 20260901161559 | 92 | 187 | 8.0 | 9.0 | 0.00 | 0.00 | 0.00 | 60 | 1016.2 |
| 20260901161059 | 91 | 160 | 5.0 | 7.0 | 0.00 | 0.00 | 0.00 | 61 | 1016.6 |
| 20260901160555 | 91 | 178 | 5.0 | 9.0 | 0.00 | 0.00 | 0.00 | 61 | 1016.4 |
| 20260901160050 | 91 | 194 | 6.0 | 10.0 | 0.00 | 0.00 | 0.00 | 61 | 1016.5 |
| 20260901155549 | 90 | 83 | 4.0 | 13.0 | 0.00 | 0.00 | 0.00 | 62 | 1016.5 |
| 20260901155044 | 90 | 166 | 5.0 | 11.0 | 0.00 | 0.00 | 0.00 | 62 | 1016.3 |
| 20260901154539 | 90 | 206 | 4.0 | 9.0 | 0.00 | 0.00 | 0.00 | 62 | 1016.4 |
| 20260901154034 | 90 | 187 | 5.0 | 8.0 | 0.00 | 0.00 | 0.00 | 63 | 1016.6 |
| 20260901153528 | 90 | 186 | 5.0 | 9.0 | 0.00 | 0.00 | 0.00 | 63 | 1016.6 |
| 20260901153022 | 89 | 185 | 4.0 | 9.0 | 0.00 | 0.00 | 0.00 | 65 | 1016.4 |
| 20260901152517 | 89 | 195 | 5.0 | 10.0 | 0.00 | 0.00 | 0.00 | 65 | 1016.4 |
| 20260901152016 | 88 | 166 | 5.0 | 11.0 | 0.00 | 0.00 | 0.00 | 66 | 1016.5 |
| 20260901151512 | 88 | 205 | 6.0 | 10.0 | 0.00 | 0.00 | 0.00 | 67 | 1016.4 |
| 20260901151011 | 87 | 188 | 5.0 | 10.0 | 0.00 | 0.00 | 0.00 | 68 | 1016.4 |
| 20260901150509 | 87 | 164 | 3.0 | 10.0 | 0.00 | 0.00 | 0.00 | 69 | 1016.4 |
| 20260901150008 | 87 | 186 | 6.0 | 10.0 | 0.00 | 0.00 | 0.00 | 69 | 1016.4 |
| 20260901145501 | 87 | 184 | 4.0 | 10.0 | 0.00 | 0.00 | 0.00 | 70 | 1016.5 |
| 20260901145001 | 87 | 179 | 4.0 | 9.0 | 0.00 | 0.00 | 0.00 | 71 | 1016.3 |
| 20260901144456 | 86 | 144 | 7.0 | 8.0 | 0.00 | 0.00 | 0.00 | 73 | 1016.4 |
| 20260901143951 | 86 | 184 | 2.0 | 9.0 | 0.00 | 0.00 | 0.00 | 73 | 1016.4 |
| 20260901143448 | 86 | 189 | 7.0 | 8.0 | 0.00 | 0.00 | 0.00 | 74 | 1016.4 |
| 20260901142944 | 86 | 204 | 5.0 | 9.0 | 0.00 | 0.00 | 0.00 | 75 | 1016.3 |
| 20260901142444 | 85 | 168 | 4.0 | 8.0 | 0.00 | 0.00 | 0.00 | 76 | 1016.4 |
| 20260901141938 | 85 | 170 | 4.0 | 8.0 | 0.00 | 0.00 | 0.00 | 76 | 1016.4 |
| 20260901141433 | 85 | 171 | 4.0 | 11.0 | 0.00 | 0.00 | 0.00 | 77 | 1016.4 |
| 20260901140928 | 84 | 174 | 5.0 | 6.0 | 0.00 | 0.00 | 0.00 | 77 | 1016.5 |
| 20260901140426 | 84 | 192 | 3.0 | 9.0 | 0.00 | 0.00 | 0.00 | 78 | 1016.3 |
| 20260901135926 | 84 | 190 | 7.0 | 8.0 | 0.00 | 0.00 | 0.00 | 78 | 1016.2 |
| 20260901135421 | 84 | 171 | 5.0 | 8.0 | 0.00 | 0.00 | 0.00 | 79 | 1016.1 |
| 20260901134917 | 83 | 146 | 7.0 | 10.0 | 0.00 | 0.00 | 0.00 | 79 | 1016.2 |
| 20260901134412 | 83 | 145 | 4.0 | 7.0 | 0.00 | 0.00 | 0.00 | 80 | 1016.2 |
| 20260901133912 | 83 | 182 | 4.0 | 6.0 | 0.00 | 0.00 | 0.00 | 81 | 1016.1 |
| 20260901133406 | 82 | 182 | 2.0 | 8.0 | 0.00 | 0.00 | 0.00 | 81 | 1016.1 |
| 20260901132905 | 82 | 157 | 3.0 | 8.0 | 0.00 | 0.00 | 0.00 | 82 | 1016.0 |
| 20260901132359 | 82 | 156 | 4.0 | 6.0 | 0.00 | 0.00 | 0.00 | 83 | 1015.9 |
| 20260901131853 | 82 | 185 | 5.0 | 7.0 | 0.00 | 0.00 | 0.00 | 83 | 1015.9 |
| 20260901131352 | 81 | 219 | 3.0 | 5.0 | 0.00 | 0.00 | 0.00 | 84 | 1015.8 |
| 20260901130848 | 81 | 185 | 2.0 | 4.0 | 0.00 | 0.00 | 0.00 | 84 | 1015.9 |
| 20260901130343 | 81 | 205 | 1.0 | 5.0 | 0.00 | 0.00 | 0.00 | 85 | 1015.6 |
| 20260901125840 | 81 | 139 | 4.0 | 5.0 | 0.00 | 0.00 | 0.00 | 85 | 1015.8 |
| 20260901125339 | 80 | 168 | 3.0 | 4.0 | 0.00 | 0.00 | 0.00 | 85 | 1015.8 |
| 20260901124835 | 80 | 185 | 3.0 | 5.0 | 0.00 | 0.00 | 0.00 | 86 | 1015.6 |
| 20260901124330 | 80 | 170 | 2.0 | 4.0 | 0.00 | 0.00 | 0.00 | 86 | 1015.6 |
| 20260901123829 | 80 | 189 | 4.0 | 4.0 | 0.00 | 0.00 | 0.00 | 86 | 1015.5 |
| 20260901123325 | 80 | 178 | 2.0 | 4.0 | 0.00 | 0.00 | 0.00 | 86 | 1015.4 |
| 20260901122823 | 80 | 174 | 3.0 | 4.0 | 0.00 | 0.00 | 0.00 | 86 | 1015.6 |
| 20260901122318 | 80 | 188 | 3.0 | 5.0 | 0.00 | 0.00 | 0.00 | 86 | 1015.7 |
| 20260901121817 | 80 | 183 | 3.0 | 5.0 | 0.00 | 0.00 | 0.00 | 86 | 1015.6 |
| 20260901121313 | 80 | 177 | 2.0 | 4.0 | 0.00 | 0.00 | 0.00 | 85 | 1015.7 |
| 20260901120813 | 80 | 147 | 3.0 | 4.0 | 0.00 | 0.00 | 0.00 | 85 | 1015.6 |
| 20260901120307 | 80 | 147 | 2.0 | 4.0 | 0.00 | 0.00 | 0.00 | 85 | 1015.4 |
| 20260901115803 | 80 | 172 | 3.0 | 5.0 | 0.00 | 0.00 | 0.00 | 85 | 1015.4 |
| 20260901115258 | 80 | 172 | 3.0 | 6.0 | 0.00 | 0.00 | 0.00 | 85 | 1015.5 |
| 20260901114755 | 80 | 165 | 2.0 | 6.0 | 0.00 | 0.00 | 0.00 | 85 | 1015.3 |
| 20260901114250 | 81 | 167 | 3.0 | 6.0 | 0.00 | 0.00 | 0.00 | 85 | 1015.4 |
| 20260901113749 | 81 | 151 | 4.0 | 7.0 | 0.00 | 0.00 | 0.00 | 85 | 1015.2 |
| 20260901113244 | 81 | 151 | 4.0 | 8.0 | 0.00 | 0.00 | 0.00 | 85 | 1015.3 |
| 20260901112743 | 81 | 170 | 4.0 | 6.0 | 0.00 | 0.00 | 0.00 | 84 | 1015.3 |
| 20260901112238 | 81 | 151 | 5.0 | 5.0 | 0.00 | 0.00 | 0.00 | 84 | 1015.3 |
| 20260901111733 | 81 | 195 | 4.0 | 6.0 | 0.00 | 0.00 | 0.00 | 84 | 1015.2 |
| 20260901111232 | 81 | 187 | 7.0 | 7.0 | 0.00 | 0.00 | 0.00 | 84 | 1015.4 |
| 20260901110726 | 81 | 177 | 4.0 | 6.0 | 0.00 | 0.00 | 0.00 | 84 | 1015.3 |
| 20260901110221 | 81 | 189 | 4.0 | 7.0 | 0.00 | 0.00 | 0.00 | 84 | 1015.2 |
| 20260901105718 | 81 | 188 | 3.0 | 6.0 | 0.00 | 0.00 | 0.00 | 83 | 1015.1 |
| 20260901105218 | 81 | 185 | 4.0 | 8.0 | 0.00 | 0.00 | 0.00 | 83 | 1015.3 |
| 20260901104714 | 81 | 197 | 3.0 | 5.0 | 0.00 | 0.00 | 0.00 | 83 | 1015.3 |
| 20260901104209 | 81 | 179 | 6.0 | 7.0 | 0.00 | 0.00 | 0.00 | 83 | 1015.2 |
| 20260901103708 | 81 | 207 | 3.0 | 7.0 | 0.00 | 0.00 | 0.00 | 83 | 1015.2 |
| 20260901103203 | 81 | 216 | 3.0 | 5.0 | 0.00 | 0.00 | 0.00 | 83 | 1015.3 |
| 20260901102658 | 81 | 181 | 5.0 | 8.0 | 0.00 | 0.00 | 0.00 | 82 | 1015.2 |
| 20260901102157 | 81 | 241 | 3.0 | 5.0 | 0.00 | 0.00 | 0.00 | 82 | 1015.3 |
| 20260901101653 | 81 | 184 | 6.0 | 9.0 | 0.00 | 0.00 | 0.00 | 82 | 1015.3 |
| 20260901101153 | 81 | 205 | 5.0 | 7.0 | 0.00 | 0.00 | 0.00 | 82 | 1015.4 |
| 20260901100647 | 81 | 212 | 2.0 | 7.0 | 0.00 | 0.00 | 0.00 | 82 | 1015.4 |
| 20260901100142 | 81 | 171 | 2.0 | 4.0 | 0.00 | 0.00 | 0.00 | 82 | 1015.5 |
| 20260901095640 | 81 | 176 | 2.0 | 4.0 | 0.00 | 0.00 | 0.00 | 82 | 1015.5 |
| 20260901095138 | 81 | 185 | 3.0 | 4.0 | 0.00 | 0.00 | 0.00 | 82 | 1015.5 |
| 20260901094632 | 81 | 179 | 3.0 | 4.0 | 0.00 | 0.00 | 0.00 | 82 | 1015.3 |
| 20260901094127 | 81 | 161 | 3.0 | 4.0 | 0.00 | 0.00 | 0.00 | 82 | 1015.2 |
| 20260901093621 | 81 | 171 | 2.0 | 6.0 | 0.00 | 0.00 | 0.00 | 82 | 1015.5 |
| 20260901093115 | 81 | 181 | 3.0 | 5.0 | 0.00 | 0.00 | 0.00 | 82 | 1015.4 |
| 20260901092611 | 82 | 167 | 2.0 | 4.0 | 0.00 | 0.00 | 0.00 | 82 | 1015.4 |
| 20260901092108 | 82 | 159 | 3.0 | 6.0 | 0.00 | 0.00 | 0.00 | 82 | 1015.6 |
| 20260901091603 | 82 | 195 | 3.0 | 4.0 | 0.00 | 0.00 | 0.00 | 82 | 1015.5 |
| 20260901091058 | 82 | 165 | 3.0 | 9.0 | 0.00 | 0.00 | 0.00 | 82 | 1015.5 |
| 20260901090557 | 82 | 181 | 3.0 | 4.0 | 0.00 | 0.00 | 0.00 | 81 | 1015.7 |
| 20260901090053 | 82 | 165 | 3.0 | 5.0 | 0.00 | 0.00 | 0.00 | 82 | 1015.8 |
| 20260901085548 | 82 | 152 | 4.0 | 7.0 | 0.00 | 0.00 | 0.00 | 82 | 1015.6 |
| 20260901085044 | 82 | 195 | 3.0 | 6.0 | 0.00 | 0.00 | 0.00 | 82 | 1015.8 |
| 20260901084540 | 82 | 160 | 4.0 | 4.0 | 0.00 | 0.00 | 0.00 | 82 | 1015.7 |
| 20260901084036 | 82 | 182 | 4.0 | 4.0 | 0.00 | 0.00 | 0.00 | 81 | 1015.6 |
| 20260901083530 | 82 | 178 | 5.0 | 5.0 | 0.00 | 0.00 | 0.00 | 81 | 1015.8 |
| 20260901083028 | 82 | 175 | 2.0 | 5.0 | 0.00 | 0.00 | 0.00 | 81 | 1015.6 |
| 20260901082524 | 82 | 200 | 4.0 | 4.0 | 0.00 | 0.00 | 0.00 | 81 | 1015.9 |
| 20260901082019 | 82 | 176 | 4.0 | 7.0 | 0.00 | 0.00 | 0.00 | 81 | 1015.7 |
| 20260901081514 | 82 | 158 | 3.0 | 6.0 | 0.00 | 0.00 | 0.00 | 81 | 1015.9 |
| 20260901081008 | 82 | 201 | 4.0 | 5.0 | 0.00 | 0.00 | 0.00 | 81 | 1015.8 |
| 20260901080508 | 82 | 176 | 3.0 | 5.0 | 0.00 | 0.00 | 0.00 | 81 | 1015.6 |
| 20260901080002 | 82 | 175 | 2.0 | 4.0 | 0.00 | 0.00 | 0.00 | 81 | 1015.7 |
| 20260901075458 | 82 | 175 | 5.0 | 5.0 | 0.00 | 0.00 | 0.00 | 81 | 1015.7 |
| 20260901074956 | 82 | 154 | 5.0 | 5.0 | 0.00 | 0.00 | 0.00 | 81 | 1015.9 |
| 20260901074451 | 82 | 198 | 3.0 | 5.0 | 0.00 | 0.00 | 0.00 | 81 | 1015.9 |
| 20260901073946 | 82 | 140 | 3.0 | 5.0 | 0.00 | 0.00 | 0.00 | 81 | 1016.2 |
| 20260901073443 | 82 | 172 | 3.0 | 6.0 | 0.00 | 0.00 | 0.00 | 81 | 1015.8 |
| 20260901072937 | 82 | 143 | 3.0 | 4.0 | 0.00 | 0.00 | 0.00 | 81 | 1015.9 |
| 20260901072432 | 82 | 181 | 2.0 | 6.0 | 0.00 | 0.00 | 0.00 | 81 | 1015.9 |
| 20260901071927 | 83 | 183 | 2.0 | 4.0 | 0.00 | 0.00 | 0.00 | 80 | 1015.8 |
| 20260901071425 | 83 | 173 | 3.0 | 5.0 | 0.00 | 0.00 | 0.00 | 80 | 1016.1 |
| 20260901070920 | 83 | 178 | 2.0 | 7.0 | 0.00 | 0.00 | 0.00 | 80 | 1016.2 |
| 20260901070415 | 83 | 187 | 3.0 | 4.0 | 0.00 | 0.00 | 0.00 | 80 | 1016.3 |
| 20260901065914 | 83 | 153 | 6.0 | 7.0 | 0.00 | 0.00 | 0.00 | 80 | 1016.0 |
| 20260901065410 | 83 | 165 | 4.0 | 6.0 | 0.00 | 0.00 | 0.00 | 80 | 1016.2 |
| 20260901064904 | 83 | 173 | 2.0 | 6.0 | 0.00 | 0.00 | 0.00 | 80 | 1016.1 |
| 20260901064401 | 83 | 159 | 3.0 | 5.0 | 0.00 | 0.00 | 0.00 | 80 | 1016.2 |